Location: Unspecified
(43.4354°N, 0.0000°E)
Time: 04:42:20
(UTC+00:00)

A-11 Canister half - Pass Details

Date: 20 June 2019
Orbit: 1514 x 1685 km, 47.2° (Epoch: 22 July)

Event Time Altitude Azimuth Distance (km) Brightness Sun altitude
Rises 12:11:50 0° 249° (WSW) 4,885 11.8 69.9°
Reaches altitude 10° 12:15:00 10° 250° (WSW) 3,880 11.4 69.8°
Maximum altitude 12:24:57 85° 340° (NNW) 1,609 10.7 69.4°
Drops below altitude 10° 12:34:32 10° 70° (ENE) 3,750 11.0 68.9°
Sets 12:37:33 0° 72° (ENE) 4,715 11.4 68.7°
